RH
76 75 75 74 74 73 72 71 70 70 68 68 67 66 64 62 60 57 54 52 48 45 42 38 36 34 32 32 32 32 32 33 34 36 38 41 42 43 42 40 40 43 49 53 58 63 66 64 64 64 64 68 71 74 76 77 78 79 80 82 82 82 81 81 80 80 82 82 83 82 82 82 82 82 82 82 82 82 81 80 80 78 77 76 76 74
76 76 76 76 76 74 72 72 72 71 69 68 68 67 66 65 64 63 61 58 55 51 47 42 38 34 31 29 27 26 26 26 26 27 28 30 30 30 30 30 34 41 51 56 60 63 67 68 65 62 61 66 73 77 78 78 78 78 80 82 83 83 83 82 82 82 82 82 83 83 83 83 83 83 82 82 82 82 82 81 80 79 78 77 76 75
75 76 76 76 77 76 74 73 73 72 70 68 65 64 64 64 64 64 64 62 60 56 51 45 40 36 32 28 25 23 22 22 22 22 22 22 23 24 24 26 30 38 50 57 62 64 64 66 64 62 60 64 72 79 82 81 80 80 82 83 84 84 84 83 83 83 83 84 84 84 84 84 83 83 83 82 82 82 82 81 80 79 78 78 76 75
74 74 74 76 76 76 75 74 74 73 71 68 65 62 61 61 61 62 63 63 62 60 56 50 43 38 32 29 26 23 22 21 20 20 20 21 22 23 24 26 28 34 43 52 58 61 60 62 62 62 60 62 71 80 83 83 82 82 83 83 84 84 84 84 84 84 84 84 84 84 84 84 83 83 83 82 82 82 82 81 80 79 78 78 77 76
73 74 73 74 75 75 74 75 75 74 72 70 66 64 61 60 60 60 61 62 63 63 61 56 49 42 35 30 27 25 24 23 22 22 22 23 24 26 26 27 27 30 34 43 50 54 54 56 60 63 64 65 72 80 83 82 82 82 83 83 84 84 84 84 84 84 84 84 84 84 84 83 83 83 83 82 82 82 81 81 80 79 78 78 77 76
71 72 72 72 72 72 72 73 73 73 72 70 68 65 63 62 60 60 60 62 63 64 65 62 56 48 40 34 30 28 26 26 25 25 26 26 28 28 28 28 27 28 29 34 40 46 49 53 61 69 73 73 77 81 83 83 82 83 83 83 84 84 84 84 84 84 84 84 84 84 84 83 83 83 83 82 82 81 80 80 79 79 79 78 78 77
70 70 70 70 70 70 70 70 70 70 70 68 65 64 63 62 60 60 60 61 63 65 67 66 62 56 49 42 37 33 31 30 29 29 29 30 30 30 30 29 28 28 28 30 34 39 46 54 64 74 80 80 81 82 83 83 83 83 83 83 84 84 84 83 83 82 81 82 83 84 84 83 83 83 83 82 80 79 78 79 79 80 79 79 78 78
70 70 69 68 68 67 66 66 66 66 65 63 61 60 59 58 58 58 59 61 63 66 68 69 68 64 60 53 47 42 39 37 36 34 34 33 32 32 31 30 30 29 28 29 30 36 45 58 70 79 82 82 82 82 82 82 82 82 82 82 82 82 83 82 80 79 79 81 82 83 83 83 83 82 82 81 80 80 79 80 80 80 80 79 78 78
72 70 68 68 66 65 63 62 61 61 60 58 56 55 54 54 54 56 58 61 64 66 68 70 70 69 66 63 58 54 50 47 45 43 41 39 36 34 33 32 31 30 29 28 30 35 47 66 76 80 81 81 82 82 82 82 82 82 82 82 82 82 82 82 80 80 80 82 83 83 83 83 83 82 82 82 81 81 81 82 81 80 79 78 78 78
72 70 68 67 66 64 61 58 58 57 55 53 51 50 50 50 51 53 56 59 63 66 67 68 68 69 68 67 66 63 60 58 55 52 49 45 42 38 35 33 31 30 29 28 30 36 50 70 79 82 81 81 81 81 81 80 80 81 82 82 82 82 82 82 82 82 82 82 83 83 83 83 83 83 83 82 82 82 82 82 81 80 80 78 78 78
70 69 68 66 65 64 60 58 56 54 52 49 47 46 45 45 46 48 50 54 58 62 65 66 68 68 67 67 66 66 66 64 62 59 54 50 45 40 36 34 31 30 28 27 30 38 54 72 80 82 82 82 82 82 81 80 80 81 82 82 82 82 81 81 81 82 82 82 82 82 82 82 82 82 82 82 82 82 82 82 82 81 80 79 78 78
64 65 65 64 64 62 60 58 55 52 49 45 42 40 40 39 38 39 42 45 50 54 58 61 63 65 65 65 65 65 66 66 65 61 56 50 44 40 35 32 30 28 26 26 30 40 57 74 80 82 82 82 82 82 81 81 81 81 81 81 81 81 80 78 79 81 82 82 82 82 82 82 82 82 82 82 81 81 80 81 81 81 81 80 79 78
60 60 60 60 60 59 58 56 54 51 48 44 40 38 36 34 32 32 32 35 39 43 47 51 54 57 60 60 61 62 63 63 62 59 54 48 42 37 33 30 28 26 24 24 28 38 56 72 79 81 81 81 81 81 81 81 80 80 81 81 81 80 79 78 78 80 81 81 81 82 82 82 82 82 82 82 80 80 79 80 80 81 81 81 80 80
58 57 56 54 54 53 52 50 50 49 48 46 42 39 36 33 30 28 27 28 30 33 36 40 44 48 51 53 55 56 57 58 56 54 50 45 39 34 30 28 26 24 22 21 24 34 51 69 78 80 80 80 80 81 81 80 80 80 81 81 81 80 79 79 80 80 80 81 81 81 81 81 81 81 81 81 81 81 80 80 81 81 81 81 81 80
56 55 54 52 50 49 47 46 45 45 46 45 44 42 39 35 32 29 26 26 26 26 28 31 34 38 42 44 46 46 47 48 48 48 46 42 38 33 29 26 24 23 21 20 22 30 44 65 76 80 80 80 80 80 80 80 81 81 81 80 80 79 80 80 81 81 81 81 81 80 80 80 80 80 80 80 80 80 81 81 81 80 80 80 80 80
50 50 50 49 48 47 45 43 42 41 41 41 40 40 38 36 34 31 28 26 24 24 23 24 26 29 33 36 36 36 35 36 38 40 40 40 37 33 29 26 24 22 20 19 21 27 39 58 72 80 81 81 81 81 81 81 81 81 81 80 80 80 81 82 82 82 82 82 81 81 81 81 80 80 79 79 79 80 80 80 80 80 80 80 80 80
40 41 42 42 42 42 42 40 38 37 36 36 35 34 34 34 34 32 30 28 26 24 23 22 22 24 26 29 29 29 27 27 28 30 32 34 34 33 31 28 26 24 21 19 20 26 36 54 69 80 82 82 82 82 82 82 82 82 82 82 82 82 82 82 82 82 82 82 82 82 82 82 81 80 79 78 79 79 80 80 80 80 80 80 79 79
31 32 33 33 34 34 34 34 32 32 31 30 30 29 30 30 30 30 29 28 27 25 24 22 22 22 23 24 25 25 24 23 23 24 25 26 28 30 30 30 28 26 23 20 21 25 34 50 66 79 82 82 81 81 81 81 81 82 82 82 82 82 82 82 82 82 83 83 83 83 83 83 82 82 81 80 80 80 80 80 80 80 80 79 79 79
22 24 25 26 27 27 28 27 26 26 24 24 24 24 24 24 25 25 26 26 26 25 24 23 22 22 21 22 23 23 23 22 22 22 22 23 24 25 27 28 28 27 26 24 24 28 35 49 65 77 82 81 81 81 81 81 82 82 82 82 82 82 82 82 82 82 82 82 83 83 83 83 83 83 82 82 82 82 82 81 80 80 80 79 79 79
15 16 18 19 20 21 22 22 22 21 19 19 18 18 18 18 19 19 20 21 22 22 22 22 22 22 21 21 21 21 21 21 22 23 24 24 24 25 26 27 28 29 29 28 30 34 40 51 66 77 82 82 82 82 82 82 82 82 82 82 83 83 83 82 82 82 82 82 82 82 83 83 83 83 83 82 82 82 82 81 81 80 80 79 79 78
10 11 12 13 13 14 15 16 16 16 15 14 14 14 14 14 14 14 15 16 16 18 18 19 20 20 21 20 21 21 20 20 21 23 24 26 26 26 26 27 29 31 33 34 38 43 47 56 69 79 81 81 82 82 82 83 83 83 83 83 83 83 83 83 82 82 82 82 82 82 82 82 82 82 83 82 82 82 82 82 81 81 80 80 79 78
8 8 9 9 10 10 10 10 11 11 11 10 10 10 10 10 10 11 12 12 12 13 14 15 16 18 19 19 20 20 19 18 20 22 24 24 24 24 24 26 30 34 37 41 46 50 54 63 72 79 80 80 81 82 82 82 83 83 83 83 83 83 83 83 83 82 82 82 82 82 82 82 82 82 82 82 82 82 82 82 82 81 80 80 79 78
8 8 8 8 8 8 8 8 8 8 8 8 8 8 8 8 8 8 9 10 10 11 12 13 14 15 16 16 17 17 17 16 18 20 22 21 20 20 22 27 33 38 42 47 52 56 61 70 76 80 80 80 80 81 81 82 82 82 82 82 82 82 82 82 82 82 83 83 82 82 82 82 82 82 82 82 82 82 82 82 81 81 80 80 79 77
8 8 8 7 7 7 7 7 7 7 7 6 6 7 7 7 7 8 8 8 9 10 10 11 12 12 13 14 14 14 14 14 16 18 21 20 18 19 22 29 37 44 48 52 56 61 68 75 79 80 80 80 81 81 81 81 81 81 81 81 81 80 80 80 80 81 82 82 82 82 82 82 82 82 82 82 81 81 81 81 81 80 80 79 78 76
7 7 7 7 6 6 6 6 6 6 6 6 6 6 6 6 6 6 7 8 8 8 9 9 10 10 10 11 12 12 12 13 14 16 20 19 18 19 22 29 38 48 53 56 61 67 75 79 80 80 81 81 81 81 81 80 80 80 79 79 78 78 77 77 78 79 80 80 81 81 82 82 82 82 82 82 81 81 81 80 80 80 79 77 75 74
6 6 6 6 6 5 5 5 5 5 5 5 5 5 5 5 6 6 7 8 8 9 9 8 8 8 9 10 10 11 11 12 14 16 18 19 19 19 20 27 37 47 55 60 68 74 80 81 81 81 81 81 82 82 81 81 80 80 78 77 76 75 74 75 76 76 78 78 78 79 81 82 82 82 82 82 82 82 81 81 80 79 77 76 75 76
5 5 4 4 4 4 4 4 4 4 4 4 4 4 5 6 7 8 9 10 10 12 12 10 9 9 9 10 10 11 13 15 18 20 22 23 22 21 20 26 35 46 58 68 75 80 81 81 81 81 80 81 82 82 82 82 82 81 80 78 76 74 74 74 74 75 76 76 77 78 81 82 82 82 82 82 82 82 82 81 80 79 78 78 79 80
4 4 4 4 4 4 4 4 4 4 4 4 4 5 6 8 10 12 12 12 14 15 16 14 12 11 11 11 12 14 18 23 28 31 34 33 30 26 23 28 38 52 68 76 80 81 80 80 80 80 80 81 82 82 82 82 82 82 80 79 77 76 74 74 74 74 75 75 76 79 82 82 82 82 82 82 82 82 82 82 81 81 81 81 82 82
3 3 3 3 3 3 3 3 3 3 3 4 5 6 8 11 15 18 16 16 17 18 18 17 16 15 14 13 14 16 23 32 39 44 46 43 39 34 32 40 54 68 77 80 81 81 81 81 80 80 80 81 82 82 82 82 82 81 80 79 78 78 77 76 76 76 76 76 78 80 82 82 82 82 82 82 82 82 81 81 81 81 82 82 82 82
3 3 3 3 3 3 3 3 3 3 4 4 6 9 12 15 19 21 20 20 21 22 20 18 18 17 16 15 16 20 28 39 47 51 52 50 46 45 49 61 72 79 80 80 81 81 81 81 80 80 81 82 82 82 82 82 82 81 81 80 80 80 79 79 79 78 79 80 81 82 82 82 82 82 82 82 81 81 80 80 80 80 80 81 81 82
3 3 2 2 3 3 3 3 3 4 4 6 9 13 17 21 24 26 26 25 25 24 22 20 20 19 19 18 20 24 34 44 50 54 55 56 58 62 69 76 79 80 80 80 80 80 80 79 80 80 81 82 82 82 82 82 82 82 82 82 82 82 82 82 82 82 82 82 83 83 83 82 82 82 81 80 80 80 79 79 78 78 78 79 80 81
3 3 3 3 3 3 3 3 4 4 5 8 12 16 22 28 31 32 32 29 28 26 25 23 22 22 21 22 26 32 40 47 51 55 61 66 71 76 79 80 80 80 80 80 80 80 79 78 79 80 81 81 82 82 81 82 82 82 82 82 82 82 83 83 83 83 83 83 83 83 83 82 82 82 81 80 80 79 78 77 77 76 76 78 80 81
3 3 3 3 3 3 4 4 4 5 6 10 14 20 26 32 36 37 36 33 30 29 28 27 26 25 24 27 32 38 45 48 54 61 70 75 78 79 80 80 80 80 78 79 79 79 78 78 79 80 81 81 81 82 82 82 82 82 81 81 81 82 82 83 83 83 83 83 83 83 83 83 82 82 82 81 81 80 80 79 78 78 79 80 81 82
3 3 3 3 4 4 4 5 6 8 9 12 17 23 30 35 38 39 38 36 34 33 32 32 30 29 28 31 36 42 46 52 61 70 77 78 79 80 80 80 80 78 78 78 78 78 78 79 79 80 81 81 82 82 82 82 82 82 81 81 81 82 82 82 82 82 82 83 83 83 83 83 82 82 82 82 82 82 81 81 81 81 81 82 82 82
3 3 3 4 4 5 6 8 9 10 13 16 20 26 32 36 39 40 40 40 39 38 37 36 34 33 32 34 37 42 48 60 70 77 79 79 80 80 80 80 79 78 78 77 78 78 79 80 80 81 82 82 82 82 82 82 82 82 82 82 82 82 82 82 82 82 82 82 82 82 82 82 82 82 82 82 82 82 82 82 82 82 82 82 82 82
3 3 4 4 5 6 7 8 10 13 16 20 24 29 35 39 41 42 43 42 42 42 41 40 38 36 35 36 39 45 55 68 76 79 79 79 80 80 80 79 78 78 79 79 79 80 80 81 82 82 82 82 82 82 82 82 82 82 82 82 82 82 82 82 82 82 82 82 82 82 82 82 82 82 82 82 82 82 82 82 82 81 81 81 82 82
3 3 4 6 6 7 8 10 12 16 20 24 30 35 40 43 45 45 45 45 45 45 44 43 41 39 38 39 44 52 64 74 78 79 80 80 80 80 80 80 80 80 81 81 81 81 82 82 82 82 82 82 82 82 82 82 82 82 82 82 82 82 82 82 82 82 82 82 82 82 82 82 82 82 82 82 82 82 82 82 81 81 81 81 81 81
3 4 6 7 8 9 10 12 16 20 26 31 37 42 46 47 48 47 47 47 48 47 46 45 43 42 41 45 52 61 70 77 79 80 80 81 81 80 80 80 81 81 81 81 82 82 82 82 82 82 81 82 82 82 82 82 82 82 82 82 82 82 82 82 82 82 82 82 82 82 82 82 82 82 82 82 82 82 81 81 81 81 81 81 81 81
4 6 7 8 10 12 14 18 22 27 33 38 42 46 48 48 48 48 49 50 50 49 48 46 44 44 46 52 60 68 74 78 79 80 80 80 80 80 80 80 81 81 81 81 82 82 82 82 81 81 80 81 81 82 82 82 82 82 82 82 82 82 82 82 82 82 82 82 82 82 82 82 82 82 82 82 82 81 81 81 81 80 80 80 80 80
6 8 9 11 13 16 20 24 29 34 39 43 46 47 48 48 49 50 51 51 50 49 47 45 45 47 52 61 68 74 78 79 80 80 80 80 80 80 80 80 81 81 81 81 82 82 82 82 81 80 80 81 82 82 82 82 82 82 82 82 82 82 82 82 82 82 82 82 82 82 82 82 82 82 82 81 81 81 81 80 80 80 79 79 79 79
8 10 12 15 19 23 27 31 35 38 42 44 46 48 49 50 50 52 52 52 50 48 46 46 48 53 61 69 75 78 80 80 80 80 80 80 80 80 80 80 81 82 82 82 82 82 82 81 81 81 81 82 82 82 82 82 82 82 82 82 82 82 82 82 81 82 82 82 82 82 81 81 81 81 81 81 81 80 80 80 79 78 78 78 78 78
11 13 16 21 26 30 34 38 40 42 44 45 46 48 49 50 51 52 52 51 49 47 45 48 53 60 69 76 79 80 80 80 80 80 80 80 80 80 81 81 82 82 82 82 82 81 81 81 82 82 82 82 82 82 82 82 82 82 82 82 82 82 82 82 82 82 81 81 81 81 81 81 81 81 80 80 80 79 78 78 78 78 77 77 76 76
15 18 23 28 32 36 40 42 43 44 45 46 47 48 49 50 51 51 50 49 47 46 46 52 59 67 74 78 80 79 78 79 79 80 80 80 80 80 80 81 81 82 82 82 82 82 81 82 82 82 82 82 82 82 82 82 82 82 81 82 82 82 82 82 82 81 81 81 81 81 80 80 80 80 79 79 79 78 77 77 76 76 76 76 76 75
22 26 31 35 38 40 42 43 44 45 46 46 47 48 48 49 49 49 48 46 46 46 50 57 65 72 77 79 79 78 78 78 79 80 80 80 80 80 80 80 81 81 81 81 82 82 82 82 82 82 82 82 82 82 82 82 82 82 82 82 82 82 82 82 81 81 81 81 80 80 80 80 79 79 78 78 78 77 76 76 75 75 75 74 74 72
29 34 38 40 42 43 44 44 44 45 45 46 46 46 47 47 46 46 45 45 46 50 55 63 70 76 79 80 79 78 78 79 79 80 80 79 79 80 80 80 81 81 81 81 82 82 82 82 82 82 82 82 82 82 82 82 82 82 82 82 82 82 82 81 81 81 81 80 80 80 79 79 78 78 78 77 76 76 75 75 74 74 74 72 69 65
36 39 42 43 44 44 44 44 44 44 44 44 45 45 45 44 44 44 44 46 49 54 61 69 74 78 80 80 79 78 78 79 80 80 80 80 80 80 80 81 81 81 81 81 82 82 82 82 82 82 82 82 82 82 82 82 82 82 82 82 82 82 81 81 81 81 80 80 80 79 78 78 78 78 78 77 76 75 74 74 73 72 70 66 60 53
41 42 43 44 44 45 45 44 44 43 43 43 44 44 43 42 42 44 45 49 54 60 68 74 78 80 80 80 79 78 79 79 80 80 80 80 80 80 81 81 81 81 82 82 82 82 82 82 82 82 82 82 82 82 82 82 82 82 82 82 82 81 81 81 80 80 80 80 80 79 78 78 77 77 76 76 75 74 73 72 70 66 61 54 48 41
43 44 45 46 47 47 47 46 45 44 44 44 44 44 43 43 44 46 49 54 60 66 73 78 80 80 80 79 79 79 79 80 80 80 80 80 80 80 81 81 81 82 82 82 82 82 82 82 82 82 82 82 82 82 82 82 82 82 81 81 81 81 81 80 80 80 79 79 79 78 78 77 77 76 76 75 74 72 69 66 62 56 50 43 36 30
46 47 48 50 51 52 52 52 50 50 48 48 48 47 45 45 47 50 54 59 65 71 76 79 80 80 79 78 79 79 79 80 80 80 80 80 80 80 81 81 81 82 82 82 82 82 82 82 82 82 82 82 82 82 82 81 81 81 81 81 81 81 81 80 79 79 78 78 78 77 77 76 76 75 74 72 68 65 60 56 51 45 38 32 27 22
52 53 53 54 56 58 60 61 60 59 57 55 54 53 52 52 54 57 61 66 71 75 78 79 79 79 78 78 79 79 80 80 80 80 80 80 81 81 81 82 82 82 82 82 82 82 82 82 82 81 81 81 81 82 82 81 81 80 80 80 80 80 80 80 78 78 77 77 77 76 76 75 74 72 69 64 60 54 50 44 39 34 28 23 18 14
65 65 65 65 66 68 69 70 70 69 67 66 65 64 64 65 67 69 72 74 76 78 79 79 79 79 80 80 80 80 80 80 79 80 80 81 81 81 82 82 82 82 82 82 82 82 82 82 81 81 81 81 80 81 81 81 80 80 80 80 79 79 79 78 78 77 76 76 76 74 74 72 69 66 61 54 48 42 37 32 28 23 18 14 11 8
Wind_Speed
67 67 66 65 65 64 64 63 62 61 60 60 59 58 57 58 58 58 59 59 59 59 58 58 57 57 56 56 56 56 57 57 57 58 58 58 57 57 56 54 52 50 49 49 49 50 50 51 51 51 51 51 51 50 50 50 50 49 48 47 47 47 48 48 48 48 48 47 47 45 44 43 44 45 46 46 46 46 45 45 44 43 43 42 42 42
67 67 66 65 65 64 64 63 61 60 60 59 58 57 57 57 57 57 57 58 58 58 58 58 57 56 56 55 55 54 54 55 55 55 55 56 56 55 54 52 51 50 49 48 48 49 49 50 51 51 51 51 50 49 49 49 49 48 47 46 46 47 47 48 47 47 47 46 44 43 42 42 43 44 45 46 46 45 45 44 44 43 43 43 43 43
66 66 66 65 64 63 63 62 60 59 59 58 58 57 56 56 56 56 56 56 57 57 58 58 57 56 55 54 53 52 52 52 52 52 53 53 53 53 52 51 50 50 49 49 48 48 49 49 50 50 50 50 49 47 47 48 48 47 46 46 46 47 47 47 47 46 45 43 42 41 42 43 43 44 45 45 45 45 45 44 44 44 43 43 43 43
66 66 66 65 64 62 62 61 59 58 58 57 57 56 55 55 55 55 55 55 56 56 57 57 57 56 55 53 52 51 50 50 50 50 51 51 51 51 50 49 49 49 50 49 49 48 48 48 49 50 50 49 48 47 47 49 49 48 46 46 46 46 47 46 46 45 43 41 41 41 43 44 45 45 45 45 45 44 44 44 44 44 44 44 43 43
66 65 65 65 64 62 61 60 58 58 57 56 56 55 55 55 55 55 55 55 55 56 56 56 56 56 55 53 52 51 50 49 49 49 49 49 49 49 49 48 48 49 49 50 49 48 48 48 49 49 49 49 48 48 49 51 50 49 47 46 46 46 46 46 45 44 42 41 40 41 43 45 46 46 46 46 45 45 44 44 44 45 45 44 44 44
66 65 65 64 63 62 61 59 58 57 56 56 55 55 54 54 54 55 55 55 55 55 56 56 56 56 55 54 53 51 51 50 50 49 49 49 49 49 49 48 48 49 49 49 49 49 48 48 48 49 49 49 49 50 52 53 52 50 47 46 45 45 45 45 45 44 43 41 41 41 43 44 45 46 46 46 46 45 45 45 45 45 46 45 45 45
67 66 65 64 64 63 61 59 58 57 56 56 55 55 54 55 55 55 55 55 55 55 56 56 57 57 56 56 55 54 53 52 52 51 50 50 50 50 50 50 49 49 49 48 48 49 49 48 49 49 49 50 51 52 54 55 53 50 47 46 45 45 45 45 45 45 44 43 42 42 42 43 44 45 46 46 46 46 46 46 46 46 46 46 46 46
68 67 66 64 63 63 62 60 58 57 56 56 56 55 55 55 55 55 55 55 55 56 56 56 57 57 57 57 57 57 56 55 54 53 52 52 51 51 51 51 50 50 49 48 48 49 50 49 49 48 49 50 51 53 54 54 52 49 47 46 45 45 45 45 46 46 46 45 44 44 43 43 43 44 44 45 46 46 47 47 47 47 47 47 47 46
68 67 66 64 63 62 62 61 59 57 56 56 56 56 55 55 55 55 55 55 55 55 56 56 57 57 57 58 58 58 58 58 57 55 54 53 53 52 52 52 51 50 49 48 49 50 51 50 48 47 48 49 50 51 52 51 49 47 46 46 46 46 46 46 47 47 47 47 46 46 45 44 44 43 43 44 44 45 46 46 47 47 47 47 47 47
67 66 65 64 63 62 61 60 59 57 56 56 56 56 55 55 55 55 54 55 55 55 55 56 56 57 57 57 57 58 59 59 58 57 56 55 54 53 53 52 51 50 50 49 50 51 52 51 49 47 48 49 49 49 48 48 47 46 46 46 47 47 48 47 47 47 47 47 47 47 47 46 45 44 43 42 43 43 44 44 45 46 46 47 47 46
67 66 65 64 63 62 60 60 59 57 56 55 55 55 55 54 54 54 54 54 54 54 54 54 55 55 55 55 55 56 57 57 57 57 56 55 54 53 53 52 52 51 50 50 51 53 53 52 50 48 48 49 49 48 47 46 46 46 47 48 49 49 49 48 48 47 46 47 47 48 49 48 46 45 43 42 41 41 42 42 43 44 45 46 47 47
66 65 65 64 63 61 60 59 58 57 56 55 54 54 53 53 52 52 53 54 53 52 52 53 53 53 53 53 53 53 54 55 55 55 55 54 53 53 52 52 52 51 51 52 53 55 55 54 51 48 48 49 50 50 48 46 47 48 49 50 50 50 49 49 48 47 46 47 48 49 50 49 48 46 44 42 41 40 40 41 42 44 46 48 49 49
66 65 65 64 63 62 60 60 59 57 56 55 54 54 53 52 52 52 53 53 52 51 51 51 51 51 51 51 51 51 51 52 53 53 53 53 52 52 52 52 52 52 52 53 55 56 57 56 52 49 48 50 52 52 50 49 49 50 51 51 50 50 49 48 47 46 46 46 48 49 50 50 49 47 45 43 41 41 41 42 44 47 50 52 53 54
66 65 65 64 63 62 61 60 60 59 57 56 55 55 54 53 53 52 53 53 52 51 51 51 51 50 49 49 49 49 49 50 51 51 51 51 51 51 52 52 52 52 52 54 56 57 58 56 53 50 48 50 53 54 53 52 51 51 52 51 51 50 49 47 46 45 45 46 47 49 50 50 49 47 45 44 44 44 46 47 50 52 55 57 58 59
67 67 66 65 64 63 62 61 61 60 59 58 57 56 56 55 54 53 53 53 52 52 51 51 51 49 48 47 47 47 48 49 49 50 50 50 50 50 51 52 52 52 52 54 56 58 58 56 53 50 48 49 52 54 55 54 53 52 52 51 50 49 48 46 45 45 45 45 47 48 49 49 48 47 46 46 47 50 52 54 56 57 59 61 62 62
69 68 68 67 66 64 63 63 62 62 61 60 59 58 57 57 56 55 55 54 54 53 52 52 51 50 48 46 46 46 47 48 49 49 49 49 49 49 50 51 51 51 52 54 56 58 57 56 53 49 47 47 49 52 54 54 53 52 51 50 49 48 47 46 45 45 44 45 45 46 47 48 47 47 46 48 50 53 56 58 59 60 62 63 64 64
72 71 70 69 68 67 65 64 64 63 63 61 60 60 59 58 58 57 56 56 55 54 54 53 52 51 49 47 46 46 47 48 49 49 48 48 48 48 48 50 51 51 52 54 56 57 57 55 52 48 45 45 46 49 51 52 51 50 49 48 47 47 47 46 45 44 44 44 44 45 46 46 46 46 47 48 51 54 55 57 58 60 61 63 64 63
73 73 72 71 70 69 68 66 65 65 64 63 62 61 61 60 59 58 57 57 56 56 55 54 54 52 50 48 46 46 47 49 49 49 48 48 47 47 47 49 50 50 51 53 55 56 55 53 50 47 44 42 43 45 47 48 48 47 47 47 47 47 47 46 45 44 43 43 43 44 44 45 45 46 47 49 51 53 54 55 56 57 59 61 62 62
75 74 73 72 72 71 69 68 67 66 65 64 63 62 61 60 59 59 58 58 57 57 56 56 55 54 52 50 48 47 47 49 49 49 48 47 46 46 46 48 49 50 51 53 54 55 54 52 49 45 42 41 42 43 45 46 46 46 47 47 48 48 47 46 44 43 43 43 43 43 43 44 44 45 47 49 50 52 53 53 54 55 57 59 60 60
75 74 73 73 72 71 70 69 67 66 65 64 63 63 62 61 60 59 58 58 58 58 57 57 56 55 53 51 49 48 48 49 50 50 49 48 47 46 46 47 49 50 51 52 53 53 51 49 47 44 41 40 41 43 45 46 47 48 48 49 49 49 48 46 45 44 44 43 43 43 43 44 44 45 46 48 50 51 52 52 53 54 55 56 58 58
74 73 72 71 71 70 69 67 66 64 64 63 63 62 61 61 60 59 59 58 58 58 58 58 57 56 54 53 51 50 50 50 51 51 50 49 48 46 46 47 48 50 51 51 51 51 49 47 45 42 39 38 40 42 45 47 49 49 50 50 50 50 50 49 47 46 45 45 44 44 44 44 45 45 46 48 49 50 51 52 52 53 54 54 55 55
72 71 70 68 67 67 66 65 63 62 61 61 60 60 60 60 59 59 58 58 58 58 58 58 57 56 55 54 53 51 51 51 51 52 51 50 48 46 46 47 48 49 49 49 49 48 47 45 44 41 38 37 38 41 45 47 49 51 51 52 53 53 53 52 50 49 48 47 45 45 44 45 45 46 47 48 49 50 50 51 51 52 52 52 52 52
69 68 66 65 64 63 62 61 59 58 58 58 58 58 58 58 58 58 57 57 57 57 57 57 57 56 55 54 53 52 51 51 51 51 51 50 48 46 46 46 47 47 47 46 46 45 44 44 42 40 37 37 38 41 44 47 49 51 52 53 54 54 54 54 53 52 50 49 47 46 46 46 47 48 49 49 49 50 50 50 50 50 50 50 50 50
65 64 63 62 60 59 58 57 56 55 54 54 54 55 55 55 56 56 56 56 56 56 56 56 56 55 54 53 52 51 51 50 51 51 51 50 48 46 46 46 46 45 44 43 43 42 42 42 41 39 38 38 39 40 43 45 47 49 50 52 53 53 54 54 54 53 52 50 49 47 47 47 48 49 50 50 50 50 50 49 49 48 48 48 49 50
62 61 60 58 57 56 55 54 53 52 51 51 51 52 52 53 53 54 54 54 54 54 55 55 54 54 53 52 51 50 49 49 49 50 49 49 47 46 45 45 44 43 42 41 40 39 39 39 39 38 38 38 39 40 42 43 44 46 47 49 50 51 52 53 53 53 52 51 49 48 48 49 49 50 50 50 50 50 49 49 48 48 48 48 50 51
59 58 57 56 55 54 53 52 51 50 49 49 49 49 50 50 51 51 51 51 52 52 53 53 52 51 50 49 49 48 47 47 47 47 47 47 46 45 44 43 41 40 39 37 36 36 36 36 37 38 38 39 39 40 41 42 42 43 44 46 47 49 50 51 52 52 51 50 49 49 49 49 50 50 50 50 50 49 49 49 49 49 49 50 52 54
56 55 54 53 52 52 51 50 49 48 47 47 47 48 48 49 49 50 49 49 49 50 50 50 50 49 47 47 46 45 44 44 44 43 43 44 44 43 41 40 38 37 35 33 33 33 34 36 37 37 38 38 39 40 41 41 42 42 43 44 45 46 48 49 50 50 50 50 49 49 49 49 49 49 49 48 49 49 49 49 50 51 52 53 55 57
53 52 51 51 50 49 49 48 47 46 46 46 46 47 47 48 48 48 48 47 47 48 48 48 47 46 45 44 43 42 41 41 40 39 39 40 40 39 37 35 34 32 31 31 31 33 35 36 37 37 38 38 39 40 41 41 41 41 42 42 43 44 46 47 47 48 48 49 49 49 48 48 48 48 47 47 48 48 49 51 52 53 54 56 57 58
50 49 49 48 47 47 46 46 45 45 44 45 45 45 46 47 47 47 47 46 45 46 46 45 44 43 42 41 40 39 38 37 36 35 35 36 35 34 32 30 29 28 29 31 33 35 36 37 37 37 38 38 39 40 41 41 41 41 41 41 42 43 44 45 45 46 47 48 48 48 48 48 47 47 46 46 47 48 50 51 52 53 55 55 56 55
47 46 46 45 45 44 44 44 43 43 43 43 44 44 44 45 46 46 45 45 44 44 43 42 41 40 40 39 38 37 35 34 32 32 32 32 31 29 27 26 27 28 31 34 36 37 37 37 37 37 38 39 39 40 41 41 40 40 40 40 41 41 42 43 44 45 46 47 47 47 47 46 46 46 45 46 47 48 49 50 51 51 52 52 52 52
43 43 43 42 42 42 42 42 42 42 42 42 42 42 43 43 44 44 44 43 43 42 41 39 38 37 36 36 35 34 32 30 29 29 29 29 27 26 25 26 28 31 33 35 37 37 37 36 36 36 37 38 39 40 40 40 39 39 39 39 40 40 41 42 43 44 45 45 46 46 45 45 45 45 45 45 46 47 47 48 48 49 49 50 50 51
40 39 39 39 39 40 40 40 40 40 40 40 40 41 41 41 42 42 43 42 41 40 39 37 35 34 33 33 32 31 28 26 25 25 26 25 25 24 25 28 30 32 34 35 36 37 36 36 35 36 37 38 38 39 39 38 38 37 37 38 39 40 40 41 42 43 43 43 44 44 44 44 43 43 43 44 44 45 46 46 47 48 49 50 51 52
36 36 36 36 37 37 38 38 38 39 38 38 39 39 39 40 40 41 41 40 40 38 37 35 33 32 30 30 29 28 25 23 23 23 23 23 24 25 27 29 31 32 33 35 35 35 35 35 35 35 36 37 37 37 37 37 36 36 36 37 38 39 40 40 41 41 41 41 42 42 42 42 42 42 42 42 43 44 45 46 47 48 50 51 52 54
33 33 33 33 34 35 35 36 36 37 37 37 37 37 38 38 39 39 39 38 38 36 35 33 31 29 28 27 26 25 22 21 21 21 22 23 24 26 28 29 31 32 33 34 34 34 34 34 34 34 35 35 36 36 36 36 36 36 36 37 38 39 40 40 39 39 39 40 40 40 41 41 41 40 41 41 42 43 45 46 48 49 51 52 53 54
30 30 30 31 31 32 33 33 34 34 34 35 35 35 36 36 37 37 37 36 36 34 33 31 30 28 26 25 24 22 21 21 21 21 21 23 24 26 28 30 31 32 33 33 33 33 33 33 33 33 34 34 35 35 36 36 35 36 36 37 38 39 39 39 39 39 39 39 39 39 39 39 39 40 41 41 43 44 46 47 48 49 50 51 52 52
28 27 28 28 29 30 30 31 31 32 32 32 33 33 34 34 35 35 35 35 34 33 31 29 27 26 24 23 22 22 21 22 22 21 22 23 24 26 28 30 30 31 31 32 32 32 32 32 32 32 33 34 34 35 35 35 35 36 36 37 38 39 39 39 39 39 39 38 38 38 38 38 38 39 40 42 43 44 45 46 47 48 49 49 50 50
25 25 25 26 26 27 27 28 28 29 29 30 30 31 32 33 33 33 33 33 32 31 29 27 26 24 23 22 21 21 21 21 21 21 21 22 24 26 28 28 29 29 30 30 30 30 30 31 31 32 32 33 33 34 34 34 34 35 36 36 37 38 39 39 39 39 38 37 36 36 36 36 37 38 39 41 42 43 44 45 45 46 47 47 48 49
22 22 22 23 23 24 24 25 25 26 27 28 29 30 31 31 32 32 32 31 30 29 27 26 24 23 22 21 21 20 20 20 19 20 21 23 24 26 26 26 26 27 27 28 28 29 30 31 31 32 32 32 32 32 32 32 33 34 35 36 37 38 38 38 38 37 35 34 33 33 33 34 35 36 37 39 40 41 42 43 44 44 45 46 47 48
20 19 19 20 21 21 22 22 23 24 25 26 27 29 29 30 30 30 30 29 28 27 26 24 23 22 21 20 20 20 19 19 19 20 22 23 24 25 25 25 26 26 27 28 29 30 30 31 31 32 31 31 31 31 31 31 32 33 34 35 36 36 36 35 34 33 32 31 31 31 32 33 34 35 36 37 38 39 40 42 43 44 44 45 46 47
17 17 17 18 18 19 20 21 22 23 24 25 26 27 28 29 29 28 28 27 26 25 24 23 22 21 20 20 20 19 19 19 20 21 23 24 25 26 26 27 27 28 29 29 30 30 31 31 31 30 30 29 29 29 30 31 32 33 33 34 33 33 32 31 30 29 29 29 29 30 31 32 33 34 35 37 38 39 40 41 42 43 44 44 45 46
15 15 15 16 17 18 19 20 21 22 23 24 25 26 27 27 27 27 26 25 24 23 22 21 21 20 20 20 19 19 19 20 21 23 24 25 26 27 27 28 29 29 30 30 30 30 30 29 29 28 28 28 28 29 29 30 31 31 31 30 29 29 28 28 28 28 28 29 29 30 31 32 33 34 35 37 38 39 40 41 42 43 43 44 45 46
13 13 14 15 16 17 18 19 20 21 22 23 24 25 25 25 25 25 24 24 23 22 21 21 20 20 20 19 19 19 20 21 22 24 25 26 27 28 29 29 29 29 29 29 29 28 28 27 27 27 27 27 27 28 28 28 28 27 27 27 26 26 26 27 27 28 28 29 30 31 32 33 34 35 36 37 38 39 40 41 42 43 44 45 46 47
12 13 13 14 15 17 18 19 20 21 22 22 23 23 23 23 23 23 23 22 22 21 21 20 20 19 19 19 19 20 21 22 23 24 26 27 28 28 29 29 28 28 28 27 27 27 27 26 26 26 26 26 26 26 26 25 25 25 25 25 25 25 26 27 27 28 29 30 31 32 32 33 34 35 37 38 39 40 40 41 42 43 44 45 46 46
12 12 13 14 15 16 18 19 20 21 21 22 22 22 22 22 21 21 21 21 20 20 20 20 20 19 19 19 20 20 21 22 23 24 25 26 27 27 27 27 26 26 26 26 27 27 27 26 26 25 25 24 24 24 24 24 24 24 24 24 25 26 26 27 28 29 30 31 31 32 33 34 35 37 38 39 40 40 41 42 43 44 45 45 46 46
11 12 13 14 15 16 18 19 20 20 21 21 21 21 20 20 20 20 19 20 20 20 20 20 20 20 20 20 20 20 21 21 22 23 24 24 24 24 24 24 24 25 25 26 26 26 26 26 25 24 23 23 23 23 23 23 23 24 24 25 26 27 27 28 29 30 30 31 32 34 35 36 37 38 39 40 40 41 42 43 43 44 44 45 45 44
10 11 12 14 15 16 18 18 19 19 20 20 20 19 19 18 18 18 19 19 20 20 21 20 20 20 20 20 20 20 20 21 22 22 22 21 21 22 22 23 24 24 25 25 25 25 24 24 23 23 23 23 23 23 23 23 24 24 25 26 26 27 28 29 30 31 32 33 34 35 36 38 38 39 40 40 41 42 43 43 43 43 44 43 43 43
10 11 12 13 15 16 17 17 18 18 18 18 18 17 17 17 17 17 18 19 20 21 21 21 21 20 20 20 20 20 21 22 21 20 19 19 20 21 22 23 24 24 24 24 24 23 23 22 22 22 22 22 23 23 23 24 24 25 26 26 27 28 29 30 31 32 33 34 36 37 38 39 39 40 40 41 41 42 42 43 43 43 42 42 41 41
10 11 12 13 14 15 15 16 16 16 16 16 15 15 15 15 16 17 18 19 20 21 21 21 20 20 19 20 20 21 21 20 18 17 17 19 20 21 22 23 23 23 23 23 22 22 22 22 22 22 23 23 23 23 24 24 25 26 26 27 28 29 30 31 33 34 35 36 37 38 39 39 40 40 41 41 41 42 42 42 42 41 41 40 40 39
11 11 12 13 13 13 13 13 14 14 13 13 13 13 14 14 15 17 18 19 20 20 20 20 19 19 20 20 21 20 18 17 16 16 18 20 21 22 23 23 22 22 22 21 21 21 22 22 22 22 23 23 23 23 24 25 26 27 28 29 30 31 32 33 34 36 36 37 38 39 39 40 40 40 40 41 41 41 41 41 40 40 39 39 38 38
10 10 10 10 10 10 10 10 10 11 11 11 11 12 12 14 15 16 17 18 18 19 19 19 19 20 20 19 18 16 15 14 16 17 20 21 22 22 22 22 22 21 21 21 21 21 21 22 22 23 23 24 24 24 25 26 28 29 30 31 32 33 34 35 36 37 38 38 39 39 40 40 40 40 40 40 40 40 39 39 39 39 38 38 38 37
7 7 7 7 7 7 7 8 8 9 9 10 10 10 11 12 13 14 15 16 17 18 18 19 19 18 17 15 13 13 14 15 18 20 22 23 23 23 22 22 21 21 21 20 21 21 21 22 22 22 23 24 25 26 27 28 29 31 32 33 34 35 35 36 37 38 38 39 39 40 40 40 40 40 39 39 39 38 38 38 38 38 38 37 37 36
Wind_Direction
278 278 278 277 277 276 276 277 276 276 276 276 276 275 275 275 275 275 275 275 275 274 273 272 271 270 269 269 268 268 267 267 267 267 267 267 267 267 268 268 267 267 266 266 266 266 265 265 264 264 264 264 263 263 263 262 260 259 257 256 256 258 259 259 258 258 259 260 262 261 259 256 255 256 258 260 262 263 264 264 263 264 265 265 265 265
279 278 278 277 276 276 276 276 276 275 276 276 276 275 275 275 275 275 275 275 274 274 273 272 271 270 269 269 268 267 266 266 266 266 266 266 266 266 266 267 266 265 264 264 264 264 264 264 264 264 264 263 262 262 262 262 260 258 255 255 255 257 258 258 258 258 260 261 261 259 256 254 255 256 258 259 261 262 263 263 263 263 264 265 266 265
280 279 278 277 276 276 276 275 275 275 275 275 275 275 275 275 275 275 275 274 274 273 272 272 271 270 269 268 267 266 265 265 264 264 264 264 265 265 266 266 265 264 262 263 263 263 263 263 263 263 263 262 261 260 261 261 260 257 255 254 255 256 257 257 257 258 260 262 261 258 255 254 255 257 258 259 260 261 262 262 262 263 264 265 266 266
282 281 280 278 277 276 276 275 275 275 274 274 275 275 275 275 274 274 274 274 273 272 272 271 270 270 269 268 267 265 264 263 263 263 263 263 263 264 264 265 264 263 262 262 262 262 263 263 263 263 262 261 260 260 261 261 260 257 255 254 255 256 256 256 257 258 261 262 260 257 255 256 256 257 258 259 260 260 261 261 262 262 263 264 265 266
283 282 281 280 278 277 276 276 275 275 275 275 275 275 275 274 274 274 274 273 272 272 271 270 269 268 268 267 265 264 263 262 262 262 262 262 262 263 263 264 264 264 263 262 262 262 263 263 263 262 261 261 260 260 261 261 259 257 255 255 256 256 256 256 257 258 261 262 261 259 258 257 257 257 257 258 259 260 260 261 261 262 263 264 265 266
283 282 282 281 280 279 278 277 276 276 276 275 275 275 275 275 274 274 273 273 272 271 270 269 268 267 265 265 264 263 262 261 261 261 261 261 261 262 262 263 263 263 263 262 262 262 263 263 262 261 260 260 259 260 260 260 259 257 255 256 257 257 257 257 258 259 261 263 263 262 261 260 259 258 257 257 258 259 260 260 261 261 263 264 265 266
282 282 281 281 281 280 279 278 278 277 277 277 276 276 275 275 275 274 273 272 271 270 269 268 267 265 264 263 262 261 261 261 261 261 261 261 261 261 262 262 262 262 262 262 262 261 261 260 260 259 258 258 258 259 259 258 257 256 255 256 258 258 258 258 259 260 261 263 264 265 265 263 261 259 258 257 258 258 259 260 260 261 263 264 265 266
281 281 280 280 280 280 279 279 279 278 278 278 277 276 276 275 275 274 273 272 270 269 267 266 265 264 263 262 261 260 260 260 260 260 260 260 260 260 260 261 261 261 261 261 261 260 258 257 257 257 257 258 258 257 257 257 256 254 254 256 258 258 258 258 259 259 260 261 264 266 266 265 263 261 259 257 257 257 258 259 260 261 263 264 265 266
280 280 279 279 279 279 279 279 278 278 278 278 277 277 276 276 275 274 272 271 269 267 266 265 264 263 262 262 261 260 260 260 260 260 259 259 259 259 259 259 259 260 260 260 260 258 256 254 254 255 256 258 258 257 257 256 254 253 254 256 257 258 258 258 258 258 259 261 263 265 267 266 265 262 260 258 256 256 257 257 259 261 263 265 266 267
279 278 278 278 278 277 278 278 278 277 277 277 276 276 276 275 275 273 271 269 268 266 265 264 264 263 262 262 261 260 260 260 259 259 259 258 258 258 258 258 258 258 258 259 258 257 254 252 251 252 255 257 258 257 257 255 254 254 254 256 257 257 258 259 259 259 259 260 262 264 266 266 265 263 261 258 256 255 255 256 258 261 263 266 268 269
278 278 278 277 277 277 277 277 277 276 276 275 275 275 274 274 273 272 270 269 267 266 265 264 263 263 262 262 261 261 260 260 259 258 258 257 257 257 257 257 257 257 257 257 256 255 253 250 249 250 253 255 256 257 256 255 255 255 255 256 256 257 258 260 259 258 258 259 260 262 264 264 264 263 261 258 255 254 253 255 257 261 264 266 269 270
278 278 278 277 277 277 276 276 276 275 275 274 273 273 272 271 271 271 270 269 267 266 265 264 263 263 262 262 262 261 260 259 258 257 256 256 256 256 256 256 256 256 256 255 255 254 252 250 249 249 251 252 254 255 255 255 255 255 256 256 256 256 258 260 259 258 257 258 259 260 261 262 262 261 260 257 255 253 253 255 258 261 264 266 268 270
278 278 278 278 277 277 276 276 275 274 274 273 272 272 271 270 270 269 269 269 268 267 265 264 263 262 262 262 262 261 259 258 257 256 255 255 255 255 256 256 255 255 255 255 254 253 252 250 249 249 250 250 251 252 253 254 254 255 255 255 255 256 258 258 258 257 258 258 259 259 259 260 260 260 259 257 256 255 256 258 260 262 264 265 267 268
278 278 278 277 277 277 277 276 275 274 273 273 272 272 271 271 270 269 269 269 268 267 266 265 264 263 262 261 261 260 259 257 256 254 254 253 254 254 255 255 255 255 254 255 254 254 253 252 251 250 250 249 249 250 251 252 253 254 254 255 255 256 257 257 257 258 259 260 259 258 258 258 258 258 257 257 257 257 259 260 262 263 264 265 265 266
278 278 277 277 277 277 276 276 276 275 274 273 273 272 272 271 270 270 270 269 269 268 267 266 265 264 262 261 260 259 258 257 255 254 253 253 253 254 254 255 255 254 254 254 255 255 254 253 253 253 252 250 248 248 248 250 251 252 253 254 255 255 255 255 257 259 260 260 259 258 256 255 255 255 255 256 256 257 259 260 262 263 263 263 263 264
278 278 277 277 277 276 276 276 276 275 275 274 274 273 272 272 271 270 270 269 269 268 267 266 265 264 263 261 260 259 258 257 256 255 254 253 253 253 254 255 255 254 254 254 255 255 255 254 254 254 254 252 249 247 246 248 249 251 252 253 254 254 255 256 258 259 260 260 259 257 255 254 253 252 253 254 255 256 257 259 260 261 262 262 262 261
278 277 277 277 277 276 276 276 276 276 275 275 274 273 272 272 271 270 270 269 269 268 267 266 266 265 264 262 260 259 258 258 257 255 254 254 254 254 254 255 255 255 254 255 255 256 256 255 255 255 256 254 250 246 246 246 248 250 251 253 253 254 255 257 258 259 259 258 257 255 254 253 251 250 250 251 253 255 256 257 258 259 260 260 260 259
277 277 277 277 276 276 276 276 276 275 275 275 274 273 272 272 271 270 269 269 268 267 267 266 266 265 265 263 261 259 259 258 258 257 256 255 255 255 255 255 256 256 255 255 256 256 256 255 255 256 257 255 251 247 245 246 247 249 251 252 253 254 255 257 257 257 256 255 255 255 254 253 251 249 248 248 250 252 253 255 256 258 259 259 259 257
276 276 276 276 276 276 276 276 276 275 275 274 274 273 272 271 270 269 268 268 267 267 266 266 265 265 265 264 262 260 259 259 259 258 258 257 256 256 256 256 256 256 256 256 256 257 256 255 255 256 257 255 251 247 245 245 247 248 249 251 252 253 254 255 255 255 254 254 254 255 255 254 252 250 248 247 248 249 250 252 254 256 258 258 257 256
276 276 276 276 276 276 275 275 275 275 275 274 273 272 271 270 269 268 267 266 266 265 265 265 265 265 265 264 263 262 261 260 260 260 260 259 258 258 257 257 257 257 256 256 257 257 256 254 254 254 255 253 249 246 244 245 246 247 248 249 250 252 253 253 253 253 253 254 254 255 255 254 253 251 250 249 248 249 250 251 253 255 256 257 256 254
277 277 276 276 276 276 275 275 274 274 273 272 272 271 270 269 268 267 266 265 264 264 264 263 264 264 264 264 264 263 262 262 262 262 262 261 260 259 258 258 257 256 256 256 256 256 255 253 252 252 253 251 248 245 244 244 245 246 247 248 250 251 253 254 254 253 253 254 255 255 255 254 253 252 251 250 250 250 251 251 253 254 255 255 254 253
278 278 277 277 277 276 276 275 274 273 272 271 270 269 268 268 267 266 265 264 263 262 262 262 262 262 263 263 263 263 263 262 262 262 263 262 261 260 259 258 257 256 256 255 255 254 253 251 250 251 251 250 248 246 244 244 244 245 246 247 249 251 252 253 254 254 254 254 255 256 255 254 253 252 251 251 251 251 252 252 253 253 253 253 252 252
279 279 279 279 278 277 277 276 274 273 271 270 268 268 267 266 265 264 263 262 261 261 260 260 260 261 261 261 261 261 261 261 261 261 262 261 261 260 259 257 257 256 255 255 255 253 251 249 249 250 252 252 250 247 246 245 245 245 246 248 249 250 252 253 253 253 253 254 255 256 255 254 253 252 251 251 251 252 252 252 252 252 251 251 251 252
280 280 280 279 279 278 277 276 274 273 271 269 268 267 266 265 264 263 263 262 261 260 260 259 259 258 258 259 259 259 259 259 259 260 260 260 260 259 258 257 256 256 255 255 254 252 249 248 249 251 253 253 251 249 248 247 247 247 248 249 250 251 252 252 252 252 253 253 255 256 256 255 254 253 252 252 252 252 252 252 252 251 251 251 251 253
279 279 279 279 278 277 276 275 274 272 271 269 268 266 265 264 263 263 262 262 261 260 259 258 257 257 257 257 257 257 257 257 257 258 258 259 259 258 257 256 255 255 255 254 252 250 248 249 251 253 254 253 251 250 250 250 250 251 252 252 253 253 253 252 252 252 252 253 254 255 256 256 255 254 254 253 253 253 253 252 252 251 251 251 252 254
278 278 278 278 277 276 275 274 273 272 271 269 268 266 265 264 263 262 262 261 261 260 259 259 258 257 257 256 255 255 255 255 255 256 257 258 258 257 256 255 255 255 254 252 249 249 250 252 254 255 255 253 251 250 251 252 254 255 255 255 255 254 253 253 252 251 252 252 254 255 256 256 256 255 255 254 254 253 253 252 252 251 251 252 253 253
277 277 277 276 275 274 273 273 272 271 270 268 267 266 265 265 264 263 262 261 261 261 261 260 260 259 258 256 255 254 254 253 254 255 256 257 258 257 256 255 254 253 251 249 249 251 255 257 258 257 255 253 251 250 251 253 255 256 257 257 256 255 254 253 252 251 251 252 254 255 256 256 256 255 255 254 253 252 251 250 250 251 251 252 252 253
276 276 275 274 273 273 272 271 270 269 268 267 266 266 265 265 265 264 263 263 262 262 262 262 262 261 259 258 256 254 253 252 253 254 255 256 257 256 255 253 250 249 249 251 255 259 260 260 259 257 255 253 251 250 251 253 255 256 257 257 257 256 254 253 252 251 251 252 253 254 255 255 255 255 255 254 252 250 249 248 248 249 250 251 251 252
275 274 273 273 272 271 270 269 268 267 266 265 265 264 265 265 265 265 265 265 264 264 264 263 263 262 261 259 256 254 252 251 252 253 254 254 255 253 251 248 245 247 252 258 262 263 262 259 257 256 254 253 252 251 252 253 254 256 257 257 257 256 255 253 252 252 252 252 253 253 253 253 253 254 254 253 251 249 247 246 247 248 249 250 251 252
273 273 272 271 270 269 268 267 266 265 265 264 264 264 264 264 265 266 267 267 267 266 266 265 264 263 262 260 257 253 250 249 250 251 251 251 250 247 243 242 245 252 259 263 264 263 260 256 255 254 253 253 252 252 253 254 255 256 257 257 257 256 255 254 253 253 252 252 252 252 251 251 252 253 253 252 250 248 246 246 246 248 249 251 253 254
272 271 270 269 268 267 266 266 265 264 263 263 262 263 263 264 265 267 268 268 269 268 268 267 265 263 262 259 256 253 249 247 247 247 247 245 242 239 238 244 251 258 261 262 261 259 257 254 253 252 253 253 253 253 253 254 255 256 257 258 258 257 256 255 254 253 252 251 250 250 250 250 251 252 252 250 248 246 245 245 246 248 250 252 254 255
270 269 268 266 265 265 264 263 263 262 262 261 261 262 263 264 265 267 268 269 270 270 269 268 266 264 261 258 255 251 248 244 242 241 239 237 236 236 242 250 256 259 259 257 256 255 255 254 253 253 253 253 253 253 253 254 255 256 257 257 257 257 256 255 254 252 251 250 249 249 249 250 252 252 251 250 247 246 245 245 246 248 250 252 253 254
269 267 265 264 262 262 261 261 261 261 260 260 261 261 262 263 265 266 268 269 270 270 270 269 268 265 260 256 253 249 245 240 235 232 231 232 237 243 249 253 256 256 254 253 253 253 254 254 253 253 253 253 253 253 254 254 255 255 255 255 255 255 254 254 253 252 250 249 248 249 250 251 252 252 251 249 247 246 245 246 247 249 250 251 253 253
268 265 263 261 259 259 258 258 259 259 259 259 260 260 261 262 264 265 267 268 270 270 270 270 268 265 259 254 249 244 239 232 227 226 230 237 244 250 253 254 253 253 252 252 253 253 254 254 253 253 253 253 253 254 255 255 255 254 253 252 252 252 252 252 252 251 250 250 249 250 250 251 251 250 249 247 246 245 245 246 247 248 250 251 252 253
266 263 261 259 257 256 256 256 256 257 257 258 258 259 260 261 263 264 266 267 269 269 270 269 267 263 257 251 244 237 229 225 225 229 237 246 252 254 254 253 253 252 253 253 253 254 254 254 253 253 253 254 255 256 256 255 254 252 250 249 249 250 250 251 252 252 251 251 251 250 250 249 248 247 245 244 244 244 244 245 247 248 250 251 253 255
264 261 259 257 256 255 254 254 255 255 256 256 257 258 259 260 262 263 265 266 267 268 268 266 264 259 253 246 237 229 223 223 229 238 247 253 255 254 253 253 253 253 253 254 254 254 254 254 254 254 254 256 256 256 256 254 252 250 247 246 246 247 248 250 251 252 252 251 251 250 249 247 245 244 243 242 243 243 244 246 248 249 251 254 256 258
263 259 257 255 254 254 253 253 253 253 254 255 256 257 258 260 261 262 264 265 265 265 264 262 259 254 248 240 231 224 221 226 235 245 252 255 254 253 253 253 252 253 254 255 255 256 256 256 256 256 256 256 256 255 254 252 250 248 246 245 245 246 247 249 250 250 250 250 249 247 246 244 243 242 242 242 243 244 246 248 250 252 255 257 259 261
262 258 256 254 253 253 252 252 251 252 252 253 254 255 257 259 260 262 263 263 263 262 260 257 253 248 241 233 225 221 222 229 238 247 252 253 253 253 253 254 254 254 255 256 257 258 259 259 258 257 256 255 253 252 250 249 248 247 246 245 245 246 247 247 248 248 247 246 245 244 243 242 242 242 243 244 245 247 249 251 254 256 258 260 262 264
261 257 255 253 252 251 250 250 249 250 251 252 253 255 256 258 260 261 262 261 260 258 255 251 246 240 233 226 221 220 224 232 241 248 252 253 253 254 255 256 257 258 258 259 260 260 260 259 258 256 255 253 251 249 248 248 247 247 247 246 246 245 245 245 244 243 242 241 240 240 240 241 242 243 244 246 248 251 253 255 257 259 261 263 265 266
260 256 253 252 251 250 249 249 249 250 251 252 254 255 257 258 259 260 260 259 257 254 250 245 239 232 226 221 220 223 230 238 245 250 252 253 255 256 257 258 259 260 260 261 260 260 259 257 256 254 252 251 250 249 249 249 249 248 247 246 244 242 241 240 239 238 238 238 238 239 240 241 243 245 247 250 252 254 257 259 260 262 264 265 267 268
258 254 252 251 250 250 250 250 250 251 252 253 254 255 257 258 258 258 257 256 253 249 243 237 230 225 221 221 224 230 238 245 249 251 252 254 255 256 257 259 259 260 260 260 259 258 256 255 253 252 251 251 251 251 251 250 248 247 244 241 239 237 236 235 235 235 236 237 238 240 242 244 247 249 252 254 256 258 260 262 263 265 266 267 268 269
255 252 250 250 250 251 251 252 253 253 254 255 255 256 257 257 257 257 255 252 248 242 235 229 223 220 220 224 230 237 244 248 249 250 251 253 255 256 257 258 258 258 258 258 257 256 254 253 253 252 252 252 251 250 248 246 243 240 237 235 233 232 232 233 234 235 237 239 241 243 246 249 251 254 256 258 260 262 264 265 266 266 267 268 269 269
254 252 251 251 252 252 253 254 255 256 256 257 257 257 257 257 256 254 251 247 241 234 227 221 218 218 221 227 235 240 244 245 246 248 250 252 254 255 256 256 256 255 255 254 254 254 253 253 252 252 251 249 246 243 240 238 235 232 231 230 230 230 232 234 236 238 241 243 246 248 251 254 256 258 260 262 263 265 266 266 267 268 268 269 269 270
253 254 254 254 255 255 256 257 257 258 258 258 259 258 257 255 253 250 245 239 232 225 219 216 215 218 224 231 237 241 243 243 245 248 251 253 255 255 254 253 252 251 250 250 251 251 251 250 249 247 244 241 237 234 231 229 228 227 228 229 231 233 235 238 240 243 245 248 251 253 256 258 260 262 263 264 265 266 267 267 268 268 269 269 270 270
253 254 256 257 258 258 258 259 259 259 259 259 259 258 256 252 248 243 238 231 224 218 215 214 216 221 227 234 239 242 245 248 253 256 257 257 255 252 250 247 246 245 245 246 246 245 245 243 241 238 235 232 229 227 225 225 226 227 230 232 235 237 240 242 245 248 251 254 256 258 261 262 263 264 265 266 266 267 268 268 269 269 270 270 271 271
256 257 258 259 259 260 259 259 259 259 259 259 258 256 252 247 242 236 230 223 218 215 214 215 219 226 232 238 243 248 255 261 265 265 262 257 252 247 243 241 240 239 240 239 239 238 236 233 231 228 226 224 223 223 224 225 227 230 233 236 239 242 245 248 251 253 256 259 260 262 263 264 265 266 266 267 267 268 269 269 270 271 271 271 272 272
264 263 261 260 260 259 259 259 259 258 257 256 254 250 245 240 234 228 223 218 216 215 217 220 225 231 238 244 252 260 267 270 270 266 259 251 244 239 236 234 233 233 233 232 230 229 227 225 224 222 221 221 221 223 226 228 231 234 238 241 244 248 251 254 256 258 260 262 263 264 265 266 266 267 267 268 269 270 270 271 272 272 272 273 273 273
270 266 263 261 259 258 258 257 256 255 253 250 246 241 236 231 227 223 219 217 217 219 222 226 232 239 247 255 263 269 272 271 266 258 248 241 235 231 228 227 226 225 224 223 221 220 219 219 219 220 221 222 224 226 229 233 236 239 243 246 250 254 257 259 261 262 263 264 265 266 267 267 268 269 269 270 271 272 272 273 273 273 273 274 274 274
274 269 263 260 257 255 254 254 252 249 245 240 235 231 227 223 221 220 219 219 221 224 228 234 241 249 257 264 269 271 269 263 253 244 236 230 225 222 219 217 215 214 213 213 213 214 215 217 218 221 223 226 228 231 235 239 242 246 249 252 256 259 261 262 264 265 265 266 267 268 269 269 270 271 272 273 273 273 274 274 274 274 274 275 275 275
278 273 266 259 253 250 249 248 245 240 233 227 222 219 218 217 218 219 221 223 227 231 237 244 252 259 264 267 268 265 257 245 236 229 223 219 214 210 208 206 205 205 205 207 209 212 215 218 221 225 228 231 235 239 242 246 249 252 255 258 260 262 264 265 266 267 267 268 269 270 271 272 272 273 274 274 274 275 274 274 274 274 275 275 275 274
286 284 278 270 261 255 250 245 238 230 220 213 210 210 213 215 219 223 227 231 236 242 247 253 258 262 264 263 258 248 236 226 219 215 211 207 204 201 199 199 200 201 203 207 211 215 219 223 227 231 235 238 242 245 249 252 255 257 260 262 264 265 266 267 268 269 269 270 271 272 273 274 274 275 275 275 275 275 275 275 274 274 274 274 274 273